Weather History for Cut Bank, MT

Change the Weather History Date:

Saturday, January 5, 2013

  Actual Average Record
Temperature  
Mean Temperature 32 °F 22 °F  
Max Temperature 42 °F 32 °F 56 °F (2006)
Min Temperature 21 °F 11 °F -43 °F (1909)
Degree Days  
Heating Degree Days 33 43  
Month to date heating degree days 185 218  
Since 1 July heating degree days 3710 3808  
Cooling Degree Days 0 0  
Month to date cooling degree days 0 0  
Year to date cooling degree days 0 0  
Moisture  
Dew Point 19 °F    
Average Humidity 65    
Maximum Humidity 84    
Minimum Humidity 45    
Precipitation  
Precipitation 0.00 in 0.01 in 0.80 in (1927)
Month to date precipitation T 0.04  
Year to date precipitation T 0.04  
Snow  
Snow 0.00 in - - ()
Snow Depth 1.00 in    
Sea Level Pressure  
Sea Level Pressure 30.16 in    
Wind  
Wind Speed 10 mph (SW)    
Max Wind Speed 25 mph    
Max Gust Speed 31 mph    
Visibility 10 miles    
Events      
T = Trace of Precipitation, MM = Missing Value Source: NWS Daily Summary

Daily Weather History Graph

Daily Weather History Graph

Search for Another Location

Airport:

Trip Planner

Search our weather history database for the weather conditions in past years. The results will help you decide how hot, cold, wet, or windy it might be!

Date:

Astronomy

Jan. 05, 2013 Rise Set
Actual Time 8:21 AM MST 4:49 PM MST
Civil Twilight 7:44 AM MST 5:25 PM MST
Nautical Twilight 7:05 AM MST 6:05 PM MST
Astronomical Twilight 6:27 AM MST 6:43 PM MST
Moon 1:14 AM MST (1/5) 11:56 AM MST (1/5)
Length of Visible Light 9h 40m
Length of Day
8h 27m
Last Quarter, 43% of the Moon is Illuminated
Jan 5
Last Quarter
Jan 11
New
Jan 18
First Quarter
Jan 26
Full
Feb 3
Last Quarter

Hourly Weather History & Observations

Time (MST) Temp. Windchill Dew Point Humidity Pressure Visibility Wind Dir Wind Speed Gust Speed Precip Events Conditions
12:56 AM 27.0 °F 15.2 °F 19.0 °F 72% 30.20 in 10.0 mi West 15.0 mph - N/A   Clear
1:56 AM 25.0 °F 15.5 °F 18.0 °F 75% 30.22 in 10.0 mi West 9.2 mph - N/A   Clear
2:56 AM 27.0 °F 13.9 °F 19.0 °F 72% 30.23 in 10.0 mi West 18.4 mph - N/A   Clear
3:56 AM 25.0 °F 14.8 °F 18.0 °F 75% 30.25 in 10.0 mi WSW 10.4 mph - N/A   Clear
4:56 AM 26.1 °F 15.0 °F 18.0 °F 71% 30.25 in 10.0 mi West 12.7 mph - N/A   Clear
5:56 AM 24.1 °F 13.7 °F 17.1 °F 75% 30.25 in 10.0 mi WNW 10.4 mph - N/A   Clear
6:56 AM 21.2 °F 10.1 °F 15.8 °F 80% 30.14 in 10.0 mi WNW 10.4 mph - N/A   Clear
7:56 AM 25.0 °F 13.1 °F 16.0 °F 69% 30.27 in 10.0 mi West 13.8 mph - N/A   Clear
8:56 AM 26.1 °F 16.8 °F 17.1 °F 69% 30.28 in 10.0 mi WSW 9.2 mph - N/A   Clear
9:56 AM 30.9 °F 23.5 °F 19.0 °F 61% 30.26 in 10.0 mi West 8.1 mph - N/A   Clear
10:56 AM 35.1 °F 30.1 °F 19.9 °F 54% 30.24 in 10.0 mi SW 5.8 mph - N/A   Clear
11:56 AM 36.0 °F 32.1 °F 21.0 °F 55% 30.21 in 10.0 mi South 4.6 mph - N/A   Clear
12:56 PM 41.0 °F 35.2 °F 21.0 °F 45% 30.17 in 10.0 mi SW 9.2 mph - N/A   Clear
1:56 PM 37.9 °F 34.4 °F 21.9 °F 53% 30.16 in 10.0 mi Variable 4.6 mph - N/A   Clear
2:56 PM 37.0 °F 30.4 °F 23.0 °F 57% 30.14 in 10.0 mi ESE 9.2 mph - N/A   Clear
3:56 PM 35.1 °F 29.3 °F 23.0 °F 61% 30.14 in 10.0 mi SE 6.9 mph - N/A   Clear
4:56 PM 30.0 °F 24.1 °F 19.9 °F 66% 30.14 in 10.0 mi SE 5.8 mph - N/A   Clear
5:56 PM 27.0 °F 20.5 °F 19.0 °F 72% 30.14 in 10.0 mi SSE 5.8 mph - N/A   Clear
6:56 PM 21.9 °F - 17.1 °F 82% 30.15 in 10.0 mi Calm Calm - N/A   Clear
7:56 PM 28.9 °F 22.8 °F 18.0 °F 64% 30.10 in 10.0 mi SSW 5.8 mph - N/A   Clear
8:56 PM 30.9 °F 20.7 °F 18.0 °F 59% 30.06 in 10.0 mi SW 13.8 mph - N/A   Clear
9:56 PM 36.0 °F 28.0 °F 21.0 °F 55% 30.01 in 10.0 mi WSW 11.5 mph 25.3 mph N/A   Clear
10:56 PM 36.0 °F 26.0 °F 23.0 °F 59% 29.99 in 10.0 mi WSW 17.3 mph 26.5 mph N/A   Partly Cloudy
11:56 PM 37.9 °F 30.0 °F 21.9 °F 53% 29.96 in 10.0 mi SW 12.7 mph - N/A   Clear